Regional Weather Roundup
Issued by NWS Cleveland, OH

Home | Current Version | Previous Version | Graphics & Text | Print | Product List | Glossary On
Versions: 1 2 3 4 5 6 7 8 9 10 11 12 13 14 15 16 17 18 19 20 21 22 23 24 25 26 27 28 29 30 31 32 33 34 35 36 37 38 39 40 41 42 43 44 45 46 47 48 49 50
000
ASUS41 KCLE 290010
RWRCLE
OHIO REGIONAL WEATHER ROUNDUP
NATIONAL WEATHER SERVICE CLEVELAND, OH
800 PM EDT THU MAY 28 2015

NOTE: "FAIR" INDICATES FEW OR NO CLOUDS BELOW 12,000 FEET WITH NO
SIGNIFICANT WEATHER AND/OR OBSTRUCTIONS TO VISIBILITY.

OHZ001>008-015>018-024>027-034-035-043-044-290100-
   NORTHWEST OHIO

CITY           SKY/WX    TMP DP  RH WIND       PRES   REMARKS
DEFIANCE       CLEAR     78  54  43 E8        30.16F
FINDLAY        CLEAR     79  58  48 E8        30.16S
TOLEDO EXPRESS CLEAR     72  52  49 NE9       30.18F
TOLEDO EXEC    CLEAR     70  55  59 NE9       30.20S
LIMA           MOCLDY    77  60  55 SE7       30.16S
$$

OHZ009>014-019>023-028>033-038-089-290100-
   NORTHEAST OHIO

CITY           SKY/WX    TMP DP  RH WIND       PRES   REMARKS
CLE-HOPKINS    PTCLDY    71  55  56 N7        30.23S
CLE-LAKEFRONT  CLEAR     66  58  75 NE10      30.20F
CUY CO. ARPT   PTCLDY    73 N/A N/A NE7       30.23R
LORAIN-ELYRIA  CLEAR     72  56  57 NE9       30.21S
ASHTABULA      CLEAR     71  50  47 VRB5      30.25R
AKRON-CANTON   PTCLDY    76  55  48 E8        30.21F
WOOSTER        CLEAR     75  59  57 E6        30.21S
MANSFIELD      CLEAR     75  60  59 E6        30.21S
YOUNGSTOWN     PTCLDY    74  57  55 E3        30.23S
$$

OHZ042-051>053-060>062-070>072-077>081-290100-
  SOUTHWEST OHIO

CITY           SKY/WX    TMP DP  RH WIND       PRES   REMARKS
CINC-COVINGTON PTCLDY    78  64  61 SE6       30.15S
CINC-LUNKEN    CLEAR     78  63  59 S5        30.14S
HAMILTON       PTCLDY    81  63  54 VRB3      30.15R
DAYTON         PTCLDY    80  62  54 SE8       30.16R
WRIGHT-PAT AFB CLEAR     81  62  52 S8        30.14S
DAYTON GENERAL PTCLDY    78  63  59 S6        30.15R
WILMINGTON     CLEAR     79  59  50 S6        30.16R
$$

OHZ036-037-039>041-045>050-054>059-063>069-073>076-082>088-290100-
  CENTRAL AND SOUTHEAST OHIO

CITY           SKY/WX    TMP DP  RH WIND       PRES   REMARKS
COLUMBUS       PTCLDY    79  61  53 E8        30.16S
OSU AIRPORT    CLEAR     78  60  53 E8        30.16S
BOLTON FIELD   NOT AVBL
RICKENBACK AFB CLEAR     78  64  61 E6        30.15F
NEWARK         CLEAR     80  61  52 E7        30.17S
MARION         CLEAR     78  57  48 SE7       30.18S
LANCASTER      PTCLDY    77  64  64 E6        30.17S
ZANESVILLE     NOT AVBL
NEW PHILLY     CLEAR     80  59  48 NE3       30.21R
$$



USA.gov is the U.S. government's official web portal to all federal, state and local government web resources and services.